Regional Weather Roundup
Issued by NWS

Home | Current Version | Previous Version | Text Only | Print | Product List | Glossary Off
Versions: 1 2 3 4 5 6 7 8 9 10 11 12 13 14 15 16 17 18 19 20 21 22 23 24 25 26 27

000
ASUS45 KCYS 211210
RWRWY

WYOMING REGIONAL WEATHER ROUNDUP
NATIONAL WEATHER SERVICE CHEYENNE WY
500 AM MST SAT JAN 21 2017

NOTE:  "FAIR" INDICATES FEW OR NO CLOUDS BELOW 12,000 FEET
WITH NO SIGNIFICANT WEATHER AND/OR OBSTRUCTIONS TO VISIBILITY.

WYZ001-211300-
YELLOWSTONE NATIONAL PARK

CITY           SKY/WX    TMP DP  RH WIND       PRES   REMARKS
LK YELLOWSTONE   N/A      6   3  87 CALM      29.32S
6HR MIN TEMP:  -2; 6HR MAX TEMP:   6;

W YELLOWSTONE  NOT AVBL

$$
WYZ002>013-054>058-071-098>099-211300-
NORTHERN WYOMING

CITY           SKY/WX    TMP DP  RH WIND       PRES   REMARKS
JACKSON        CLOUDY    16  14  93 N6        29.34S WCI   7
CODY           MOCLDY    16   9  74 CALM      29.33
GREYBULL       FOG        9   6  88 NW3       29.39R VSB 1/4
6HR MIN TEMP:   8; 6HR MAX TEMP:  14;

WORLAND        MOCLDY     3   0  87 N5        29.35S WCI  -6
6HR MIN TEMP:   2; 6HR MAX TEMP:  13;

SHERIDAN       FAIR      15  10  80 SW9       29.33F WCI   3
6HR MIN TEMP:  14; 6HR MAX TEMP:  27;

BUFFALO        FAIR      24  15  68 SW5       29.33F WCI  18
6HR MIN TEMP:  22; 6HR MAX TEMP:  34;

GILLETTE       FAIR      18  15  88 CALM      29.33F
6HR MIN TEMP:  16; 6HR MAX TEMP:  28;

HULETT         FAIR      27  25  93 SW7       29.34F FOG     WCI  19
NEWCASTLE      CLOUDY    30  30 100 N6        29.37S WCI  24

$$
WYZ014>020-022>026-101>103-211300-
CENTRAL WYOMING

CITY           SKY/WX    TMP DP  RH WIND       PRES   REMARKS
BIG PINEY      CLOUDY     6   3  87 CALM      29.33F
6HR MIN TEMP:   2; 6HR MAX TEMP:   9; 6HR PCP: TRACE;

PINEDALE       CLOUDY    10   9  92 NW7       29.33F WCI   0
DUBOIS         NOT AVBL
LANDER         FAIR      12   9  87 CALM      29.33S
6HR MIN TEMP:  10; 6HR MAX TEMP:  19;

RIVERTON       FOG       12  11  95 NW7       29.34S VSB 1/4 WCI   1
CASPER         FAIR      18  14  84 W9        29.32F WCI   7
6HR MIN TEMP:  17; 6HR MAX TEMP:  27;

DOUGLAS        FAIR      15  11  83 S5        29.35S WCI   8
6HR MIN TEMP:  13; 6HR MAX TEMP:  23;


$$
WYZ021-027>030-104>119-211300-
SOUTHERN WYOMING

CITY           SKY/WX    TMP DP  RH WIND       PRES   REMARKS
EVANSTON       CLOUDY    15  10  80 E9        29.27S WCI   3
6HR MIN TEMP:  13; 6HR MAX TEMP:  18; 6HR PCP: TRACE;

ROCK SPRINGS   CLOUDY    16  13  88 E8        29.30S WCI   5
6HR MIN TEMP:  14; 6HR MAX TEMP:  23;

RAWLINS        CLOUDY    15  10  80 CALM      29.34S
6HR MIN TEMP:   9; 6HR MAX TEMP:  21;

LARAMIE        FAIR       8   3  80 SE8       29.32F WCI  -4
6HR MIN TEMP:   5; 6HR MAX TEMP:  16;

CHEYENNE       FAIR      20  16  84 W5        29.34F WCI  13
6HR MIN TEMP:  19; 6HR MAX TEMP:  27;

TORRINGTON     FAIR      18  15  88 NE8       29.35F WCI   8
6HR MIN TEMP:  17; 6HR MAX TEMP:  29;


$$




USA.gov is the U.S. government's official web portal to all federal, state and local government web resources and services.